Regional Weather Roundup
Issued by NWS

Home | Current Version | Previous Version | Text Only | Print | Product List | Glossary On
Versions: 1 2 3 4 5 6 7 8 9 10 11 12 13 14 15 16 17 18 19 20 21 22 23 24 25 26 27 28 29 30 31 32 33 34 35 36 37 38 39 40 41 42 43 44 45 46 47 48 49 50
000
ASUS45 KREV 200710
RWRNV
NEVADA REGIONAL WEATHER ROUNDUP
NATIONAL WEATHER SERVICE RENO NV
1200 AM PDT WED AUG 20 2014

NOTE: "FAIR" INDICATES FEW OR NO CLOUDS BELOW 12,000 FEET WITH NO
SIGNIFICANT WEATHER AND/OR OBSTRUCTIONS TO VISIBILITY.

NVZ001-003-004-200800-
WESTERN NEVADA

CITY           SKY/WX    TMP DP  RH WIND       PRES   REMARKS
RENO           PTCLDY    75  38  26 N9        29.93R
CARSON CITY    FAIR      64  41  42 SE3       29.96R
MINDEN         FAIR      61  39  44 SE7       29.97
SLIDE MTN        N/A     52  32  46 N21         N/A
FALLON         PTCLDY    69  34  27 E5        29.85R
LOVELOCK       PTCLDY    77  35  21 N6        29.84R
HAWTHORNE      MOCLDY    81  37  21 NE18G28   29.91R
$$

NVZ002-CAZ072-073-200800-
NORTHERN AND CENTRAL SIERRA

CITY           SKY/WX    TMP DP  RH WIND       PRES   REMARKS
S. LAKE TAHOE  CLEAR     54  40  59 CALM      30.07S
TRUCKEE        CLEAR     50  36  57 CALM      30.07S
SQUAW VLY 8000   N/A     55  25  30 VRB12       N/A
SUSANVILLE     CLEAR     72  41  33 W9        29.94R
BLUE CANYON    CLEAR     63  39  41 CALM      30.04F
MAMMOTH LAKES  FAIR      55  32  41 CALM      30.11R
BRIDGEPORT     FAIR      57  37  47 VRB5      30.09R
$$

NVZ030-031-036-200800-
NORTHERN NEVADA

CITY           SKY/WX    TMP DP  RH WIND       PRES   REMARKS
ELKO           MOCLDY    63  44  50 SW8       29.94S
WINNEMUCCA     NOT AVBL
WENDOVER       CLOUDY    72  45  37 NE8       29.90R
$$

NVZ035-037-200800-
CENTRAL NEVADA

CITY           SKY/WX    TMP DP  RH WIND       PRES   REMARKS
ELY            CLOUDY    54  54 100 S3        30.08S
EUREKA           N/A     62  44  51 S9        30.01F
$$

NVZ013-014-200800-
SOUTH CENTRAL NEVADA

CITY           SKY/WX    TMP DP  RH WIND       PRES   REMARKS
TONOPAH        PTCLDY    63  40  42 E3        30.00R
$$

NVZ017-020-022-200800-
SOUTHERN NEVADA

CITY           SKY/WX    TMP DP  RH WIND       PRES   REMARKS
LAS VEGAS      PTCLDY    80  54  40 S6        29.79R
N. LAS VEGAS   PTCLDY    80  52  37 SE3       29.82R
NELLIS AFB     PTCLDY    80  55  42 NE8       29.81R
HENDERSON      PTCLDY    78  55  44 SW3       29.85R
MERCURY        PTCLDY    74  33  22 N8        29.86S
$$



USA.gov is the U.S. government's official web portal to all federal, state and local government web resources and services.